TimeCDT,TemperatureF,Dew PointF,Humidity,Sea Level PressureIn,VisibilityMPH,Wind Direction,Wind SpeedMPH,Gust SpeedMPH,PrecipitationIn,Events,Conditions,WindDirDegrees,DateUTC
12:15 AM,66.2,57.2,73,29.98,10.0,South,5.8,-,N/A,,Clear,180,2014-03-11 05:15:00
12:35 AM,64.4,57.2,77,29.97,10.0,South,4.6,-,N/A,,Clear,180,2014-03-11 05:35:00
12:55 AM,64.4,57.2,77,29.96,10.0,South,3.5,-,N/A,,Clear,170,2014-03-11 05:55:00
1:15 AM,64.4,57.2,77,29.96,10.0,South,3.5,-,N/A,,Clear,170,2014-03-11 06:15:00
1:35 AM,64.4,57.2,77,29.95,10.0,Calm,Calm,-,N/A,,Clear,0,2014-03-11 06:35:00
1:55 AM,62.6,57.2,82,29.95,10.0,Calm,Calm,-,N/A,,Clear,0,2014-03-11 06:55:00
2:15 AM,62.6,57.2,82,29.94,10.0,South,3.5,-,N/A,,Clear,170,2014-03-11 07:15:00
2:35 AM,62.6,57.2,82,29.93,10.0,Calm,Calm,-,N/A,,Clear,0,2014-03-11 07:35:00
2:55 AM,62.6,57.2,82,29.92,10.0,Calm,Calm,-,N/A,,Clear,0,2014-03-11 07:55:00
3:15 AM,62.6,57.2,82,29.90,10.0,Calm,Calm,-,N/A,,Clear,0,2014-03-11 08:15:00
3:35 AM,62.6,57.2,82,29.90,10.0,Calm,Calm,-,N/A,,Clear,0,2014-03-11 08:35:00
3:55 AM,60.8,57.2,88,29.89,10.0,Calm,Calm,-,N/A,,Clear,0,2014-03-11 08:55:00
4:15 AM,60.8,55.4,82,29.89,10.0,Calm,Calm,-,N/A,,Scattered Clouds,0,2014-03-11 09:15:00
4:35 AM,60.8,57.2,88,29.89,10.0,Calm,Calm,-,N/A,,Overcast,0,2014-03-11 09:35:00
4:55 AM,60.8,57.2,88,29.89,10.0,Calm,Calm,-,N/A,,Overcast,0,2014-03-11 09:55:00
5:15 AM,60.8,57.2,88,29.88,10.0,Calm,Calm,-,N/A,,Overcast,0,2014-03-11 10:15:00
5:35 AM,62.6,57.2,82,29.87,10.0,Calm,Calm,-,N/A,Rain,Light Rain,0,2014-03-11 10:35:00
5:55 AM,60.8,57.2,88,29.87,10.0,Calm,Calm,-,N/A,,Overcast,0,2014-03-11 10:55:00
6:15 AM,62.6,57.2,82,29.88,10.0,Calm,Calm,-,N/A,,Overcast,0,2014-03-11 11:15:00
6:35 AM,62.6,57.2,82,29.88,10.0,Calm,Calm,-,N/A,,Overcast,0,2014-03-11 11:35:00
6:55 AM,62.6,57.2,82,29.87,10.0,East,3.5,-,N/A,,Overcast,100,2014-03-11 11:55:00
7:15 AM,62.6,57.2,82,29.87,10.0,Calm,Calm,-,N/A,,Overcast,0,2014-03-11 12:15:00
7:35 AM,60.8,57.2,88,29.87,10.0,Calm,Calm,-,N/A,,Overcast,0,2014-03-11 12:35:00
7:55 AM,60.8,57.2,88,29.87,10.0,Calm,Calm,-,N/A,,Mostly Cloudy,0,2014-03-11 12:55:00
8:15 AM,62.6,57.2,82,29.87,10.0,Calm,Calm,-,N/A,,Mostly Cloudy,0,2014-03-11 13:15:00
8:35 AM,62.6,57.2,82,29.87,10.0,Calm,Calm,-,N/A,,Overcast,0,2014-03-11 13:35:00
8:55 AM,62.6,57.2,82,29.87,10.0,East,3.5,-,N/A,Thunderstorm,Overcast,90,2014-03-11 13:55:00
9:15 AM,62.6,57.2,82,29.87,10.0,Calm,Calm,-,N/A,,Overcast,0,2014-03-11 14:15:00
9:35 AM,62.6,59.0,88,29.87,3.0,Calm,Calm,-,0.01,Rain,Heavy Rain,0,2014-03-11 14:35:00
9:55 AM,62.6,59.0,88,29.87,10.0,Calm,Calm,-,0.01,,Light Drizzle,0,2014-03-11 14:55:00
10:15 AM,64.4,59.0,83,29.87,7.0,Calm,Calm,-,N/A,Rain,Light Rain,0,2014-03-11 15:15:00
10:35 AM,64.4,60.8,88,29.86,7.0,SE,3.5,-,N/A,,Overcast,130,2014-03-11 15:35:00
10:55 AM,64.4,60.8,88,29.85,5.0,ESE,5.8,-,N/A,,Overcast,110,2014-03-11 15:55:00
11:15 AM,66.2,62.6,88,29.84,7.0,ESE,8.1,-,N/A,,Overcast,120,2014-03-11 16:15:00
11:35 AM,66.2,62.6,88,29.82,5.0,ESE,9.2,-,N/A,,Overcast,110,2014-03-11 16:35:00
11:55 AM,66.2,64.4,94,29.82,7.0,SE,4.6,-,N/A,,Overcast,140,2014-03-11 16:55:00
12:15 PM,68.0,64.4,88,29.81,10.0,SE,8.1,-,N/A,,Overcast,140,2014-03-11 17:15:00
12:35 PM,66.2,62.6,88,29.82,10.0,SSW,6.9,-,N/A,,Light Drizzle,200,2014-03-11 17:35:00
12:55 PM,66.2,62.6,88,29.81,10.0,South,5.8,-,N/A,Rain,Light Rain,170,2014-03-11 17:55:00
1:15 PM,66.2,62.6,88,29.77,10.0,East,9.2,-,N/A,,Light Drizzle,100,2014-03-11 18:15:00
1:35 PM,66.2,62.6,88,29.78,10.0,ESE,4.6,-,N/A,Rain,Rain,120,2014-03-11 18:35:00
1:55 PM,66.2,62.6,88,29.79,10.0,South,5.8,-,N/A,,Overcast,170,2014-03-11 18:55:00
2:15 PM,66.2,62.6,88,29.79,10.0,South,9.2,-,N/A,,Overcast,190,2014-03-11 19:15:00
2:35 PM,66.2,62.6,88,29.77,10.0,SSE,6.9,-,N/A,,Overcast,160,2014-03-11 19:35:00
2:55 PM,66.2,62.6,88,29.75,10.0,SE,4.6,-,N/A,,Overcast,140,2014-03-11 19:55:00
3:15 PM,68.0,62.6,83,29.74,10.0,SE,4.6,-,N/A,,Overcast,130,2014-03-11 20:15:00
3:35 PM,68.0,62.6,83,29.74,10.0,SE,4.6,-,N/A,,Overcast,130,2014-03-11 20:35:00
3:55 PM,68.0,62.6,83,29.74,10.0,SE,5.8,-,N/A,,Overcast,140,2014-03-11 20:55:00
4:15 PM,68.0,62.6,83,29.72,10.0,ESE,5.8,-,N/A,,Overcast,120,2014-03-11 21:15:00
4:35 PM,68.0,62.6,83,29.72,10.0,SSE,3.5,-,N/A,,Overcast,150,2014-03-11 21:35:00
4:55 PM,68.0,62.6,83,29.71,10.0,SE,5.8,-,N/A,,Overcast,140,2014-03-11 21:55:00
5:15 PM,68.0,62.6,83,29.71,10.0,Calm,Calm,-,N/A,,Overcast,0,2014-03-11 22:15:00
5:35 PM,69.8,62.6,78,29.71,10.0,Calm,Calm,-,N/A,,Mostly Cloudy,0,2014-03-11 22:35:00
5:55 PM,69.8,62.6,78,29.70,10.0,Calm,Calm,-,N/A,,Mostly Cloudy,0,2014-03-11 22:55:00
6:15 PM,69.8,62.6,78,29.70,10.0,Calm,Calm,-,N/A,,Scattered Clouds,0,2014-03-11 23:15:00
6:35 PM,69.8,62.6,78,29.70,10.0,Calm,Calm,-,N/A,,Clear,0,2014-03-11 23:35:00
6:55 PM,68.0,60.8,78,29.71,10.0,Calm,Calm,-,N/A,,Clear,0,2014-03-11 23:55:00
7:15 PM,66.2,60.8,83,29.71,10.0,Calm,Calm,-,N/A,,Clear,0,2014-03-12 00:15:00
7:35 PM,66.2,60.8,83,29.72,10.0,Calm,Calm,-,N/A,,Clear,0,2014-03-12 00:35:00
7:55 PM,66.2,60.8,83,29.72,10.0,ESE,3.5,-,N/A,,Clear,120,2014-03-12 00:55:00
8:15 PM,64.4,60.8,88,29.73,10.0,ENE,3.5,-,N/A,,Clear,70,2014-03-12 01:15:00
8:35 PM,64.4,60.8,88,29.72,10.0,East,4.6,-,N/A,,Clear,80,2014-03-12 01:35:00
8:55 PM,64.4,60.8,88,29.73,10.0,ENE,4.6,-,N/A,,Clear,70,2014-03-12 01:55:00
9:15 PM,64.4,60.8,88,29.73,10.0,East,6.9,-,N/A,,Clear,90,2014-03-12 02:15:00
9:35 PM,64.4,60.8,88,29.73,10.0,East,5.8,-,N/A,,Scattered Clouds,100,2014-03-12 02:35:00
9:55 PM,64.4,60.8,88,29.74,7.0,South,3.5,-,N/A,,Mostly Cloudy,170,2014-03-12 02:55:00
10:15 PM,64.4,60.8,88,29.73,5.0,South,4.6,-,N/A,,Overcast,170,2014-03-12 03:15:00
10:35 PM,62.6,60.8,94,29.73,1.2,South,3.5,-,N/A,,Overcast,180,2014-03-12 03:35:00
10:55 PM,62.6,60.8,94,29.74,0.8,Calm,Calm,-,N/A,,Overcast,0,2014-03-12 03:55:00
11:15 PM,62.6,59.0,88,29.74,0.5,SE,4.6,-,N/A,Fog,Fog,130,2014-03-12 04:15:00
11:35 PM,60.8,59.0,94,29.74,2.0,SSE,3.5,-,N/A,,Scattered Clouds,160,2014-03-12 04:35:00